Date String (YYYY-MM-DD hh:mm:ss) UTC,Instrument flags,absolute air pressure of the measurement (hPa),sample flow rate (lpm),inlet stack bypass flow (lpm),air temperature of the measurement (°C),ambient temperature measured by the external sensor (°C),aerosol sample conditioner tube jacket temperature (°C),OPC LED temperature (°C),internal box temperature (°C),relative humidity of the measurement (%),span deviation,mass concentration of particles derived from Lorenz-Mie calculation of OPC scattering (μg/m³),mass concentration of particles derived from Lorenz-Mie calculation of OPC scattering (μg/m³),mass concentration of particles derived from Lorenz-Mie calculation of OPC scattering (μg/m³)
DateTimeUTC,F1_M11,P_M11,Q1_M11,Q2_M11,T1_M11,T2_M11,T3_M11,T4_M11,T5_M11,U1_M11,ZSPAN_M11,X0_M11,X2_M11,X1_M11
2024-02-16 13:00:00,SystemResetWarning,0830.1,5.00,000.00,018.4,018.1,000.0,026.9,020.0,17.0,0000.0,0006.72,0005.63,0005.57
2024-02-16 13:01:00,SystemResetWarning,0830.1,4.99,000.00,018.4,018.0,000.0,026.9,020.0,17.1,0000.0,0006.78,0005.64,0005.57
2024-02-16 13:02:00,SystemResetWarning,0830.1,5.01,000.00,018.4,017.9,000.0,026.9,020.0,17.1,0000.0,0006.89,0005.67,0005.58
2024-02-16 13:03:00,SystemResetWarning,0830.1,5.01,000.00,018.4,017.9,000.0,026.9,020.0,17.2,0000.0,0006.94,0005.69,0005.59
2024-02-16 13:04:00,SystemResetWarning,0830.1,4.99,000.00,018.4,017.8,000.0,026.9,020.0,17.2,0000.0,0006.93,0005.69,0005.60
2024-02-16 13:05:00,SystemResetWarning,0830.2,4.99,000.00,018.3,017.8,000.0,027.0,020.0,17.2,0000.8,0006.89,0005.69,0005.61
2024-02-16 13:06:00,SystemResetWarning,0830.1,4.99,000.00,018.3,017.7,000.0,027.0,020.0,17.2,0000.3,0006.85,0005.69,0005.62
2024-02-16 13:07:00,SystemResetWarning,0830.1,5.02,000.00,018.3,017.7,000.0,027.0,020.0,17.3,0000.0,0006.86,0005.69,0005.61
2024-02-16 13:08:00,SystemResetWarning,0830.1,5.00,000.00,018.3,017.6,000.0,027.0,020.0,17.3,0000.0,0006.94,0005.70,0005.62
2024-02-16 13:09:00,SystemResetWarning,0830.1,5.00,000.00,018.3,017.6,000.0,027.0,020.0,17.3,0001.2,0007.28,0005.71,0005.63
2024-02-16 13:10:00,SystemResetWarning,0830.1,5.00,000.00,018.3,017.6,000.0,027.0,020.0,17.4,0001.3,0007.32,0005.73,0005.64
2024-02-16 13:11:00,SystemResetWarning,0830.1,5.00,000.00,018.3,017.6,000.0,027.0,020.0,17.4,0001.1,0007.39,0005.76,0005.65
2024-02-16 13:12:00,SystemResetWarning,0830.1,5.00,000.00,018.3,017.6,000.0,027.0,020.0,17.5,0001.3,0007.40,0005.77,0005.66
2024-02-16 13:13:00,SystemResetWarning,0830.1,5.00,000.00,018.3,017.8,000.0,027.0,020.1,17.5,0001.4,0007.38,0005.77,0005.67
2024-02-16 13:14:00,SystemResetWarning,0830.1,5.00,000.00,018.5,018.5,000.0,027.1,020.6,17.4,0001.7,0007.38,0005.78,0005.69
2024-02-16 13:15:00,SystemResetWarning,0830.0,4.98,000.00,018.7,019.0,000.0,027.1,020.9,17.2,0001.9,0007.45,0005.82,0005.72
2024-02-16 13:16:00,SystemResetWarning,0830.0,4.99,000.00,018.7,018.8,000.0,027.0,020.6,17.1,0001.8,0007.51,0005.85,0005.75
2024-02-16 13:17:00,SystemResetWarning,0830.0,5.01,000.00,018.6,018.7,000.0,027.0,020.4,17.2,0001.6,0007.55,0005.87,0005.76
2024-02-16 13:18:00,SystemResetWarning,0830.0,5.01,000.00,018.6,018.5,000.0,027.0,020.2,17.2,0001.8,0007.61,0005.90,0005.78
2024-02-16 13:19:00,SystemResetWarning,0830.0,4.99,000.00,018.5,018.3,000.0,026.9,020.1,17.3,0002.2,0007.70,0005.96,0005.82
2024-02-16 13:20:00,SystemResetWarning,0830.0,5.00,000.00,018.5,018.2,000.0,026.9,020.0,17.4,0002.5,0007.62,0005.99,0005.85
2024-02-16 13:21:00,SystemResetWarning,0830.0,5.01,000.00,018.4,018.1,000.0,026.9,020.0,17.5,0002.7,0007.65,0006.04,0005.89
2024-02-16 13:22:00,SystemResetWarning,0830.0,5.01,000.00,018.4,018.0,000.0,027.0,020.0,17.5,0002.9,0008.32,0006.07,0005.91
2024-02-16 13:23:00,SystemResetWarning,0830.0,5.00,000.00,018.4,017.9,000.0,027.0,020.0,17.6,0002.9,0008.56,0006.13,0005.95
2024-02-16 13:24:00,SystemResetWarning,0830.0,4.99,000.00,018.4,017.8,000.0,027.0,020.0,17.6,0002.9,0008.68,0006.19,0005.98
2024-02-16 13:25:00,SystemResetWarning,0830.0,4.99,000.00,018.4,017.7,000.0,027.0,020.0,17.6,0002.6,0008.76,0006.23,0006.02
2024-02-16 13:26:00,SystemResetWarning,0830.0,5.00,000.00,018.3,017.7,000.0,027.0,020.0,17.6,0002.6,0008.82,0006.27,0006.04
2024-02-16 13:27:00,SystemResetWarning,0830.0,5.02,000.00,018.3,017.7,000.0,027.0,020.0,17.7,0002.9,0008.91,0006.33,0006.06
2024-02-16 13:28:00,SystemResetWarning,0830.0,4.99,000.00,018.3,017.6,000.0,027.0,020.0,17.7,0002.6,0009.04,0006.40,0006.12
2024-02-16 13:29:00,SystemResetWarning,0830.0,4.98,000.00,018.3,017.6,000.0,027.0,020.0,17.7,0002.3,0009.10,0006.45,0006.15
2024-02-16 13:30:00,SystemResetWarning,0830.0,5.02,000.00,018.3,017.6,000.0,027.0,020.0,17.7,0002.0,0009.17,0006.47,0006.19
2024-02-16 13:31:00,SystemResetWarning,0830.0,5.01,000.00,018.3,017.6,000.0,027.0,020.0,17.7,0001.5,0009.20,0006.49,0006.21
2024-02-16 13:32:00,SystemResetWarning,0830.0,4.99,000.00,018.3,017.5,000.0,027.0,020.0,17.7,0001.4,0009.24,0006.51,0006.23
2024-02-16 13:33:00,SystemResetWarning,0829.9,4.99,000.00,018.3,017.5,000.0,027.0,020.0,17.8,0000.9,0008.95,0006.53,0006.26
2024-02-16 13:34:00,SystemResetWarning,0829.9,5.02,000.00,018.3,017.5,000.0,027.0,020.0,17.7,0000.7,0008.50,0006.56,0006.29
2024-02-16 13:35:00,SystemResetWarning,0829.9,5.00,000.00,018.3,017.5,000.0,027.0,020.0,17.8,0000.4,0008.49,0006.58,0006.33
2024-02-16 13:36:00,SystemResetWarning,0829.9,4.98,000.00,018.3,017.5,000.0,027.0,020.0,17.8,0000.1,0008.50,0006.61,0006.38
2024-02-16 13:37:00,SystemResetWarning,0830.0,5.00,000.00,018.4,018.1,000.0,027.1,020.3,17.8,0000.2,0008.61,0006.68,0006.44
2024-02-16 13:38:00,SystemResetWarning,0830.0,5.02,000.00,018.6,018.8,000.0,027.1,020.8,17.6,-000.1,0008.70,0006.76,0006.50
2024-02-16 13:39:00,SystemResetWarning,0830.0,5.00,000.00,018.7,018.9,000.0,027.1,020.7,17.5,-000.1,0008.68,0006.77,0006.54
2024-02-16 13:40:00,SystemResetWarning,0830.0,4.99,000.00,018.6,018.7,000.0,027.0,020.5,17.5,0000.3,0008.67,0006.80,0006.58
2024-02-16 13:41:00,SystemResetWarning,0830.0,5.00,000.00,018.6,018.5,000.0,027.0,020.3,17.5,0000.3,0008.69,0006.84,0006.62
2024-02-16 13:42:00,SystemResetWarning,0830.0,5.00,000.00,018.5,018.4,000.0,027.0,020.2,17.6,0000.4,0008.72,0006.91,0006.67
2024-02-16 13:43:00,SystemResetWarning,0830.0,5.01,000.00,018.5,018.2,000.0,026.9,020.1,17.7,0000.4,0008.83,0006.99,0006.74
2024-02-16 13:44:00,SystemResetWarning,0829.9,5.00,000.00,018.4,018.1,000.0,026.9,020.0,17.7,0000.8,0008.87,0007.06,0006.81
2024-02-16 13:45:00,SystemResetWarning,0829.8,5.00,000.00,018.4,017.9,000.0,027.0,020.0,17.8,0001.0,0008.84,0007.08,0006.85
2024-02-16 13:46:00,SystemResetWarning,0829.8,5.00,000.00,018.4,017.8,000.0,027.0,020.0,17.8,0001.0,0008.84,0007.13,0006.90
2024-02-16 13:47:00,SystemResetWarning,0829.9,5.00,000.00,018.4,017.7,000.0,027.0,020.0,17.8,0001.2,0008.88,0007.18,0006.95
2024-02-16 13:48:00,SystemResetWarning,0829.9,4.99,000.00,018.3,017.7,000.0,027.0,020.0,17.8,0001.2,0008.88,0007.21,0006.99
2024-02-16 13:49:00,SystemResetWarning,0830.0,4.99,000.00,018.3,017.6,000.0,027.1,020.0,17.8,0001.8,0008.82,0007.21,0007.02
2024-02-16 13:50:00,SystemResetWarning,0830.0,4.99,000.00,018.3,017.5,000.0,027.1,020.0,17.9,0002.1,0008.81,0007.25,0007.07
2024-02-16 13:51:00,SystemResetWarning,0830.0,5.00,000.00,018.3,017.5,000.0,027.1,020.0,17.9,0002.0,0008.91,0007.30,0007.11
2024-02-16 13:52:00,SystemResetWarning,0830.0,5.00,000.00,018.3,017.5,000.0,027.1,020.0,17.9,0002.2,0008.92,0007.33,0007.15
2024-02-16 13:53:00,SystemResetWarning,0830.0,5.01,000.00,018.3,017.5,000.0,027.1,020.0,18.0,0002.2,0008.89,0007.33,0007.18
2024-02-16 13:54:00,SystemResetWarning,0830.0,5.00,000.00,018.3,017.4,000.0,027.0,020.0,18.0,0002.2,0008.86,0007.34,0007.19
2024-02-16 13:55:00,SystemResetWarning,0830.0,5.00,000.00,018.3,017.4,000.0,027.0,020.0,18.0,0002.0,0008.88,0007.35,0007.20
2024-02-16 13:56:00,SystemResetWarning,0830.0,4.99,000.00,018.3,017.4,000.0,027.0,020.0,18.0,0002.1,0008.95,0007.38,0007.21
2024-02-16 13:57:00,SystemResetWarning,0830.0,4.99,000.00,018.3,017.4,000.0,027.0,020.0,18.0,0002.1,0008.99,0007.39,0007.22
2024-02-16 13:58:00,SystemResetWarning,0830.0,5.00,000.00,018.3,017.4,000.0,027.0,020.0,18.0,0002.1,0009.06,0007.41,0007.22
2024-02-16 13:59:00,SystemResetWarning,0830.0,5.02,000.00,018.4,018.1,000.0,027.1,020.4,17.9,0002.2,0009.06,0007.41,0007.24
